BAW32ML LFMN-EGLL

Flight info

Callsign BAW32ML
Flight time 1h 37m
Altitude 38000
Route BADOD DCT NEDRU DCT LTP DCT BULOL DCT IDAVO DCT BAGBI DCT SIZZA DCT LAULY DCT BRY DCT CLM DCT KOPOR DCT ABNUR DCT DIMAL DCT ALESO
Aircraft A320/M-SDE3FGHIRWY/LB1

Departure

Time 2026-05-04 18:23
Airport Nice-Côte d'Azur Airport (LFMN)

Arrival

Time 2026-05-04 20:01
Airport London Heathrow Airport (EGLL)
Time Latitude Longitude Altitude Speed Heading
2026-05-04 18:03 43.66499 7.21544 28 ft 0 kts 315°
2026-05-04 18:15 43.66488 7.21560 27 ft 2 kts 313°
2026-05-04 18:15 43.66478 7.21575 28 ft 1 kts 314°
2026-05-04 18:16 43.66471 7.21584 28 ft 1 kts 302°
2026-05-04 18:16 43.66468 7.21603 29 ft 2 kts 259°
2026-05-04 18:16 43.66473 7.21618 28 ft 0 kts 228°
2026-05-04 18:17 43.66479 7.21626 26 ft 0 kts 223°
2026-05-04 18:18 43.66478 7.21624 26 ft 1 kts 223°
2026-05-04 18:18 43.66443 7.21577 26 ft 9 kts 225°
2026-05-04 18:19 43.66328 7.21402 26 ft 14 kts 225°
2026-05-04 18:19 43.66253 7.21300 26 ft 15 kts 225°
2026-05-04 18:19 43.66173 7.21189 26 ft 16 kts 226°
2026-05-04 18:20 43.66087 7.21072 26 ft 17 kts 224°
2026-05-04 18:20 43.65997 7.20951 26 ft 18 kts 224°
2026-05-04 18:20 43.65895 7.20851 26 ft 18 kts 186°
2026-05-04 18:20 43.65773 7.20872 25 ft 17 kts 169°
2026-05-04 18:21 43.65654 7.20900 25 ft 17 kts 171°
2026-05-04 18:21 43.65538 7.20927 24 ft 16 kts 172°
2026-05-04 18:21 43.65420 7.20954 24 ft 17 kts 169°
2026-05-04 18:21 43.65311 7.20902 24 ft 17 kts 227°
2026-05-04 18:22 43.65225 7.20780 24 ft 18 kts 223°
2026-05-04 18:22 43.65133 7.20657 24 ft 18 kts 225°
2026-05-04 18:22 43.65030 7.20632 24 ft 13 kts 143°
2026-05-04 18:22 43.65012 7.20721 24 ft 10 kts 42°
2026-05-04 18:23 43.65105 7.20841 24 ft 40 kts 45°
2026-05-04 18:23 43.65477 7.21351 24 ft 106 kts 45°
2026-05-04 18:23 43.66131 7.22237 75 ft 152 kts 43°
2026-05-04 18:23 43.66883 7.23268 614 ft 156 kts 54°
2026-05-04 18:24 43.67222 7.24626 1222 ft 159 kts 97°
2026-05-04 18:24 43.66625 7.25912 1805 ft 168 kts 135°
2026-05-04 18:24 43.65731 7.27014 2171 ft 181 kts 136°
2026-05-04 18:24 43.64745 7.28178 2602 ft 193 kts 134°
2026-05-04 18:25 43.63770 7.29526 3039 ft 206 kts 131°
2026-05-04 18:25 43.62974 7.31207 3492 ft 217 kts 102°
2026-05-04 18:25 43.63055 7.33225 4230 ft 218 kts 71°
2026-05-04 18:25 43.63632 7.35156 5041 ft 219 kts 68°
2026-05-04 18:26 43.64319 7.36991 5810 ft 223 kts 54°
2026-05-04 18:26 43.65649 7.38232 6275 ft 249 kts 17°
2026-05-04 18:26 43.67447 7.38121 6702 ft 274 kts 340°
2026-05-04 18:26 43.69023 7.36583 7217 ft 291 kts 312°
2026-05-04 18:27 43.70312 7.34405 8032 ft 295 kts 306°
2026-05-04 18:27 43.71564 7.32145 8876 ft 298 kts 306°
2026-05-04 18:27 43.72834 7.29930 9674 ft 301 kts 307°
2026-05-04 18:27 43.74165 7.27704 10429 ft 305 kts 307°
2026-05-04 18:28 43.75567 7.25419 10907 ft 318 kts 308°
2026-05-04 18:28 43.77033 7.23076 11507 ft 326 kts 308°
2026-05-04 18:28 43.78524 7.20724 12245 ft 328 kts 308°
2026-05-04 18:28 43.80029 7.18356 12972 ft 329 kts 308°
2026-05-04 18:29 43.81532 7.15997 13675 ft 331 kts 308°
2026-05-04 18:29 43.83061 7.13595 14340 ft 334 kts 308°
2026-05-04 18:29 43.84600 7.11175 14973 ft 337 kts 308°
2026-05-04 18:29 43.86144 7.08750 15599 ft 340 kts 308°
2026-05-04 18:30 43.89291 7.03799 16770 ft 347 kts 308°
2026-05-04 18:30 43.90875 7.01309 17337 ft 350 kts 308°
2026-05-04 18:30 43.92492 6.98760 17903 ft 353 kts 308°
2026-05-04 18:31 43.94116 6.96201 18439 ft 357 kts 308°
2026-05-04 18:31 43.95761 6.93613 19006 ft 359 kts 308°
2026-05-04 18:31 43.97399 6.91026 19551 ft 362 kts 308°
2026-05-04 18:31 43.99078 6.88372 20103 ft 364 kts 308°
2026-05-04 18:32 44.00735 6.85748 20655 ft 366 kts 308°
2026-05-04 18:32 44.02414 6.83093 21207 ft 368 kts 308°
2026-05-04 18:32 44.04094 6.80432 21735 ft 370 kts 308°
2026-05-04 18:32 44.05790 6.77739 22243 ft 372 kts 308°
2026-05-04 18:33 44.07503 6.75019 22733 ft 374 kts 308°
2026-05-04 18:33 44.09212 6.72300 23207 ft 376 kts 308°
2026-05-04 18:33 44.10936 6.69554 23660 ft 379 kts 307°
2026-05-04 18:33 44.12666 6.66798 24110 ft 381 kts 307°
2026-05-04 18:34 44.14398 6.64032 24539 ft 383 kts 307°
2026-05-04 18:34 44.16142 6.61247 24985 ft 384 kts 307°
2026-05-04 18:34 44.17898 6.58443 25421 ft 386 kts 307°
2026-05-04 18:34 44.19671 6.55654 25814 ft 390 kts 309°
2026-05-04 18:35 44.21687 6.53044 26228 ft 396 kts 316°
2026-05-04 18:35 44.23925 6.50801 26649 ft 401 kts 324°
2026-05-04 18:35 44.26307 6.48817 27052 ft 404 kts 326°
2026-05-04 18:35 44.28755 6.46847 27426 ft 407 kts 326°
2026-05-04 18:36 44.31205 6.44878 27780 ft 410 kts 326°
2026-05-04 18:36 44.33689 6.42878 28160 ft 412 kts 326°
2026-05-04 18:36 44.36138 6.40900 28533 ft 413 kts 325°
2026-05-04 18:36 44.38638 6.38871 28874 ft 416 kts 325°
2026-05-04 18:37 44.41125 6.36848 29238 ft 417 kts 325°
2026-05-04 18:37 44.43647 6.34792 29556 ft 420 kts 324°
2026-05-04 18:37 44.46172 6.32730 29882 ft 422 kts 324°
2026-05-04 18:37 44.48716 6.30653 30217 ft 424 kts 324°
2026-05-04 18:38 44.51257 6.28577 30525 ft 427 kts 324°
2026-05-04 18:38 44.53818 6.26477 30828 ft 428 kts 324°
2026-05-04 18:38 44.56404 6.24357 31115 ft 431 kts 324°
2026-05-04 18:38 44.58978 6.22244 31398 ft 433 kts 324°
2026-05-04 18:39 44.61563 6.20122 31697 ft 434 kts 324°
2026-05-04 18:39 44.64189 6.17962 31958 ft 437 kts 324°
2026-05-04 18:39 44.66789 6.15824 32237 ft 438 kts 324°
2026-05-04 18:39 44.69413 6.13659 32510 ft 440 kts 324°
2026-05-04 18:40 44.72062 6.11473 32851 ft 439 kts 324°
2026-05-04 18:40 44.74700 6.09297 33228 ft 438 kts 324°
2026-05-04 18:40 44.77311 6.07143 33604 ft 436 kts 324°
2026-05-04 18:40 44.79899 6.05001 33968 ft 435 kts 324°
2026-05-04 18:41 44.82479 6.02864 34298 ft 434 kts 324°
2026-05-04 18:41 44.85096 6.00691 34604 ft 433 kts 324°
2026-05-04 18:41 44.87679 5.98545 34885 ft 432 kts 324°
2026-05-04 18:41 44.90250 5.96405 35178 ft 430 kts 324°
2026-05-04 18:42 44.92816 5.94267 35461 ft 429 kts 324°
2026-05-04 18:42 44.95359 5.92147 35702 ft 428 kts 324°
2026-05-04 18:42 44.97921 5.90009 35935 ft 428 kts 324°
2026-05-04 18:42 45.00473 5.87878 36172 ft 427 kts 324°
2026-05-04 18:43 45.03043 5.85727 36367 ft 427 kts 324°
2026-05-04 18:43 45.05586 5.83599 36576 ft 429 kts 324°
2026-05-04 18:43 45.08126 5.81434 36781 ft 429 kts 322°
2026-05-04 18:43 45.10638 5.79171 36979 ft 429 kts 322°
2026-05-04 18:44 45.13166 5.76860 37160 ft 430 kts 322°
2026-05-04 18:44 45.14848 5.75318 37280 ft 431 kts 322°
2026-05-04 18:44 45.18185 5.72254 37516 ft 433 kts 322°
2026-05-04 18:44 45.20696 5.69952 37679 ft 433 kts 322°
2026-05-04 18:45 45.23235 5.67619 37834 ft 434 kts 322°
2026-05-04 18:45 45.25756 5.65301 37968 ft 434 kts 322°
2026-05-04 18:45 45.28297 5.62963 38020 ft 436 kts 322°
2026-05-04 18:46 45.33370 5.58289 38017 ft 437 kts 322°
2026-05-04 18:46 45.38443 5.53606 38013 ft 437 kts 322°
2026-05-04 18:47 45.43534 5.48893 38006 ft 438 kts 322°
2026-05-04 18:47 45.48735 5.44342 37984 ft 442 kts 326°
2026-05-04 18:48 45.54290 5.40547 37997 ft 445 kts 331°
2026-05-04 18:48 45.59951 5.37063 37987 ft 446 kts 332°
2026-05-04 18:49 45.65664 5.33542 37997 ft 445 kts 331°
2026-05-04 18:49 45.71315 5.30035 37994 ft 445 kts 331°
2026-05-04 18:50 45.76967 5.26520 38000 ft 446 kts 330°
2026-05-04 18:50 45.82665 5.22959 37997 ft 446 kts 331°
2026-05-04 18:51 45.88354 5.19401 38000 ft 447 kts 330°
2026-05-04 18:51 45.94028 5.15841 37992 ft 446 kts 330°
2026-05-04 18:52 45.99698 5.12275 37982 ft 447 kts 330°
2026-05-04 18:52 46.05380 5.08695 37961 ft 448 kts 330°
2026-05-04 18:53 46.11060 5.05092 37943 ft 448 kts 330°
2026-05-04 18:53 46.16764 5.01457 37957 ft 448 kts 330°
2026-05-04 18:54 46.22449 4.97825 37958 ft 449 kts 330°
2026-05-04 18:54 46.28154 4.94181 37958 ft 449 kts 330°
2026-05-04 18:55 46.33833 4.90545 37953 ft 449 kts 331°
2026-05-04 18:55 46.42370 4.85057 37946 ft 449 kts 331°
2026-05-04 18:56 46.48092 4.81367 37950 ft 450 kts 331°
2026-05-04 18:56 46.53777 4.77691 37963 ft 451 kts 331°
2026-05-04 18:57 46.59524 4.73969 37952 ft 452 kts 331°
2026-05-04 18:57 46.65234 4.70261 37947 ft 451 kts 331°
2026-05-04 18:58 46.70961 4.66531 37961 ft 451 kts 331°
2026-05-04 18:58 46.76655 4.62812 37948 ft 452 kts 331°
2026-05-04 18:59 46.82359 4.59082 37968 ft 452 kts 331°
2026-05-04 18:59 46.88115 4.55350 37959 ft 452 kts 332°
2026-05-04 19:00 46.93846 4.51628 37953 ft 453 kts 332°
2026-05-04 19:00 46.99582 4.47884 37954 ft 453 kts 332°
2026-05-04 19:01 47.05310 4.44141 37959 ft 452 kts 332°
2026-05-04 19:01 47.11045 4.40383 37961 ft 452 kts 332°
2026-05-04 19:02 47.16777 4.36614 37954 ft 453 kts 332°
2026-05-04 19:02 47.22544 4.32817 37948 ft 453 kts 331°
2026-05-04 19:03 47.28256 4.29043 37951 ft 452 kts 331°
2026-05-04 19:03 47.34011 4.25234 37945 ft 452 kts 331°
2026-05-04 19:04 47.39698 4.21417 37944 ft 451 kts 329°
2026-05-04 19:04 47.45211 4.17076 37947 ft 450 kts 326°
2026-05-04 19:05 47.50709 4.12612 37946 ft 450 kts 327°
2026-05-04 19:05 47.56157 4.08217 37945 ft 450 kts 327°
2026-05-04 19:06 47.61651 4.03795 37935 ft 451 kts 327°
2026-05-04 19:06 47.67158 3.99356 37933 ft 451 kts 327°
2026-05-04 19:07 47.72647 3.94926 37929 ft 451 kts 327°
2026-05-04 19:07 47.78158 3.90467 37925 ft 452 kts 327°
2026-05-04 19:08 47.83640 3.86020 37927 ft 452 kts 327°
2026-05-04 19:08 47.89142 3.81546 37919 ft 452 kts 327°
2026-05-04 19:09 47.94624 3.77080 37922 ft 450 kts 327°
2026-05-04 19:09 48.00130 3.72581 37930 ft 451 kts 327°
2026-05-04 19:10 48.05605 3.68094 37934 ft 451 kts 327°
2026-05-04 19:10 48.11108 3.63577 37929 ft 451 kts 328°
2026-05-04 19:11 48.16576 3.59076 37926 ft 452 kts 328°
2026-05-04 19:11 48.22076 3.54540 37933 ft 452 kts 328°
2026-05-04 19:12 48.30289 3.47743 37930 ft 452 kts 328°
2026-05-04 19:13 48.35790 3.43176 37934 ft 451 kts 328°
2026-05-04 19:13 48.41239 3.38639 37937 ft 451 kts 328°
2026-05-04 19:14 48.46713 3.34074 37935 ft 450 kts 327°
2026-05-04 19:14 48.52166 3.29514 37937 ft 450 kts 327°
2026-05-04 19:15 48.57621 3.24938 37942 ft 450 kts 327°
2026-05-04 19:15 48.63076 3.20353 37946 ft 450 kts 327°
2026-05-04 19:16 48.68542 3.15746 37944 ft 450 kts 328°
2026-05-04 19:16 48.73993 3.11141 37944 ft 450 kts 327°
2026-05-04 19:17 48.79429 3.06538 37939 ft 450 kts 328°
2026-05-04 19:17 48.84880 3.01912 37943 ft 450 kts 328°
2026-05-04 19:18 48.90313 2.97286 37938 ft 449 kts 328°
2026-05-04 19:18 48.95724 2.92670 37936 ft 449 kts 328°
2026-05-04 19:19 49.01166 2.88014 37939 ft 449 kts 328°
2026-05-04 19:19 49.06588 2.83363 37941 ft 449 kts 328°
2026-05-04 19:20 49.12012 2.78699 37942 ft 449 kts 328°
2026-05-04 19:20 49.17435 2.74025 37940 ft 449 kts 328°
2026-05-04 19:21 49.22880 2.69321 37941 ft 449 kts 328°
2026-05-04 19:21 49.28279 2.64643 37942 ft 449 kts 328°
2026-05-04 19:22 49.33710 2.59925 37941 ft 449 kts 328°
2026-05-04 19:22 49.39125 2.55210 37944 ft 449 kts 328°
2026-05-04 19:23 49.44524 2.50495 37946 ft 449 kts 328°
2026-05-04 19:23 49.49952 2.45746 37939 ft 449 kts 328°
2026-05-04 19:24 49.55356 2.41004 37937 ft 449 kts 328°
2026-05-04 19:24 49.60767 2.36243 37945 ft 449 kts 328°
2026-05-04 19:25 49.66174 2.31474 37945 ft 449 kts 328°
2026-05-04 19:25 49.68872 2.29088 38055 ft 449 kts 328°
2026-05-04 19:25 49.71574 2.26697 37848 ft 448 kts 328°
2026-05-04 19:26 49.76957 2.21923 37871 ft 450 kts 328°
2026-05-04 19:26 49.82365 2.17113 37738 ft 448 kts 328°
2026-05-04 19:26 49.85048 2.14724 37598 ft 448 kts 328°
2026-05-04 19:27 49.87764 2.12302 37455 ft 448 kts 328°
2026-05-04 19:27 49.90462 2.09893 37314 ft 448 kts 328°
2026-05-04 19:27 49.93151 2.07488 37114 ft 449 kts 328°
2026-05-04 19:27 49.95845 2.05075 36913 ft 448 kts 328°
2026-05-04 19:28 49.98511 2.02684 36713 ft 448 kts 328°
2026-05-04 19:28 50.01212 2.00259 36503 ft 449 kts 327°
2026-05-04 19:28 50.03912 1.97829 36296 ft 449 kts 327°
2026-05-04 19:28 50.06574 1.95430 36092 ft 449 kts 327°
2026-05-04 19:29 50.09302 1.92970 35968 ft 449 kts 327°
2026-05-04 19:29 50.14608 1.87997 35962 ft 448 kts 323°
2026-05-04 19:30 50.19506 1.82190 35671 ft 436 kts 316°
2026-05-04 19:30 50.21712 1.79026 35395 ft 434 kts 313°
2026-05-04 19:30 50.23880 1.75731 34979 ft 435 kts 313°
2026-05-04 19:30 50.26011 1.72453 34378 ft 437 kts 313°
2026-05-04 19:31 50.28177 1.69113 33668 ft 440 kts 313°
2026-05-04 19:31 50.30367 1.65745 32968 ft 442 kts 313°
2026-05-04 19:31 50.32525 1.62431 32262 ft 444 kts 313°
2026-05-04 19:31 50.34727 1.59050 31701 ft 441 kts 314°
2026-05-04 19:32 50.36896 1.55722 31241 ft 437 kts 314°
2026-05-04 19:32 50.39045 1.52418 30761 ft 432 kts 314°
2026-05-04 19:32 50.41177 1.49138 30261 ft 428 kts 314°
2026-05-04 19:32 50.43273 1.45906 29791 ft 423 kts 314°
2026-05-04 19:33 50.45341 1.42713 29329 ft 418 kts 314°
2026-05-04 19:33 50.47391 1.39544 28870 ft 413 kts 314°
2026-05-04 19:33 50.49420 1.36366 28414 ft 408 kts 313°
2026-05-04 19:33 50.51339 1.33170 27966 ft 403 kts 311°
2026-05-04 19:34 50.53231 1.29953 27524 ft 399 kts 311°
2026-05-04 19:34 50.55076 1.26806 27085 ft 395 kts 311°
2026-05-04 19:34 50.56937 1.23635 26636 ft 391 kts 311°
2026-05-04 19:34 50.58807 1.20592 26187 ft 388 kts 313°
2026-05-04 19:35 50.60692 1.17616 25752 ft 384 kts 313°
2026-05-04 19:35 50.62570 1.14664 25320 ft 380 kts 313°
2026-05-04 19:35 50.64424 1.11745 24882 ft 377 kts 313°
2026-05-04 19:35 50.66262 1.08844 24452 ft 374 kts 313°
2026-05-04 19:36 50.68090 1.05952 24015 ft 371 kts 313°
2026-05-04 19:36 50.69903 1.03079 23573 ft 368 kts 313°
2026-05-04 19:36 50.71696 1.00230 23148 ft 366 kts 314°
2026-05-04 19:36 50.73465 0.97418 22715 ft 364 kts 314°
2026-05-04 19:37 50.75242 0.94587 22277 ft 362 kts 314°
2026-05-04 19:37 50.76996 0.91791 21850 ft 360 kts 314°
2026-05-04 19:37 50.78757 0.88982 21414 ft 359 kts 314°
2026-05-04 19:37 50.80505 0.86189 20979 ft 358 kts 314°
2026-05-04 19:38 50.82229 0.83431 20552 ft 357 kts 314°
2026-05-04 19:38 50.83980 0.80627 20129 ft 355 kts 314°
2026-05-04 19:38 50.85705 0.77863 19709 ft 354 kts 314°
2026-05-04 19:38 50.87421 0.75111 19288 ft 353 kts 315°
2026-05-04 19:39 50.89151 0.72336 18868 ft 353 kts 315°
2026-05-04 19:39 50.90843 0.69615 18466 ft 350 kts 315°
2026-05-04 19:39 50.92533 0.66895 18282 ft 341 kts 315°
2026-05-04 19:39 50.94169 0.64260 18084 ft 332 kts 315°
2026-05-04 19:40 50.95776 0.61669 17884 ft 324 kts 315°
2026-05-04 19:40 50.97328 0.59165 17679 ft 318 kts 315°
2026-05-04 19:40 50.98875 0.56667 17193 ft 324 kts 315°
2026-05-04 19:40 51.00470 0.54089 16536 ft 333 kts 315°
2026-05-04 19:41 51.02099 0.51453 16084 ft 332 kts 315°
2026-05-04 19:41 51.03694 0.48864 15776 ft 328 kts 315°
2026-05-04 19:41 51.05268 0.46308 15477 ft 323 kts 315°
2026-05-04 19:41 51.06823 0.43783 15180 ft 318 kts 316°
2026-05-04 19:42 51.08407 0.41324 14864 ft 314 kts 317°
2026-05-04 19:42 51.09970 0.38959 14447 ft 309 kts 318°
2026-05-04 19:42 51.11503 0.36643 13884 ft 307 kts 318°
2026-05-04 19:42 51.13052 0.34291 13272 ft 305 kts 317°
2026-05-04 19:43 51.14568 0.31981 12666 ft 302 kts 317°
2026-05-04 19:43 51.16074 0.29678 12113 ft 299 kts 317°
2026-05-04 19:43 51.17565 0.27397 11622 ft 299 kts 317°
2026-05-04 19:43 51.19048 0.25127 11314 ft 296 kts 317°
2026-05-04 19:44 51.20526 0.22859 10959 ft 293 kts 317°
2026-05-04 19:44 51.21987 0.20619 10637 ft 291 kts 317°
2026-05-04 19:44 51.23434 0.18396 10304 ft 290 kts 316°
2026-05-04 19:44 51.24871 0.16186 9967 ft 288 kts 316°
2026-05-04 19:45 51.26315 0.13963 9630 ft 287 kts 316°
2026-05-04 19:45 51.27745 0.11757 9298 ft 286 kts 316°
2026-05-04 19:45 51.29159 0.09576 8976 ft 284 kts 316°
2026-05-04 19:45 51.30574 0.07390 8725 ft 279 kts 316°
2026-05-04 19:46 51.31945 0.05269 8516 ft 273 kts 316°
2026-05-04 19:46 51.33071 0.02903 8270 ft 270 kts 291°
2026-05-04 19:46 51.33380 -0.00003 8024 ft 266 kts 274°
2026-05-04 19:46 51.33493 -0.02930 7806 ft 261 kts 275°
2026-05-04 19:47 51.33626 -0.05794 7589 ft 257 kts 275°
2026-05-04 19:47 51.33767 -0.08604 7375 ft 252 kts 276°
2026-05-04 19:47 51.33912 -0.11377 7161 ft 247 kts 276°
2026-05-04 19:47 51.34054 -0.14065 7010 ft 244 kts 276°
2026-05-04 19:48 51.34198 -0.16761 6857 ft 243 kts 276°
2026-05-04 19:48 51.34340 -0.19427 6684 ft 242 kts 276°
2026-05-04 19:48 51.34482 -0.22110 6507 ft 242 kts 276°
2026-05-04 19:48 51.34624 -0.24781 6329 ft 238 kts 276°
2026-05-04 19:49 51.34761 -0.27391 6149 ft 233 kts 276°
2026-05-04 19:49 51.34894 -0.29931 5971 ft 228 kts 276°
2026-05-04 19:49 51.35025 -0.32423 5794 ft 224 kts 276°
2026-05-04 19:49 51.35155 -0.34887 5619 ft 224 kts 276°
2026-05-04 19:50 51.35284 -0.37375 5442 ft 223 kts 276°
2026-05-04 19:50 51.35412 -0.39834 5267 ft 223 kts 276°
2026-05-04 19:50 51.35539 -0.42298 5093 ft 223 kts 276°
2026-05-04 19:50 51.35666 -0.44766 4940 ft 223 kts 276°
2026-05-04 19:51 51.35793 -0.47240 4787 ft 223 kts 277°
2026-05-04 19:51 51.35917 -0.49693 4638 ft 223 kts 277°
2026-05-04 19:51 51.36043 -0.52162 4487 ft 222 kts 277°
2026-05-04 19:51 51.36171 -0.54692 4345 ft 235 kts 277°
2026-05-04 19:52 51.36304 -0.57318 4195 ft 237 kts 277°
2026-05-04 19:52 51.36433 -0.59907 4047 ft 237 kts 277°
2026-05-04 19:52 51.36565 -0.62548 3996 ft 236 kts 277°
2026-05-04 19:52 51.36832 -0.65132 3993 ft 235 kts 287°
2026-05-04 19:53 51.37306 -0.67603 3992 ft 235 kts 290°
2026-05-04 19:53 51.37829 -0.70077 3990 ft 235 kts 290°
2026-05-04 19:53 51.38359 -0.72544 3990 ft 235 kts 290°
2026-05-04 19:53 51.38894 -0.75021 3991 ft 235 kts 291°
2026-05-04 19:54 51.39414 -0.77440 3985 ft 226 kts 291°
2026-05-04 19:54 51.39907 -0.79763 3978 ft 214 kts 291°
2026-05-04 19:54 51.40371 -0.81966 3974 ft 202 kts 291°
2026-05-04 19:54 51.40959 -0.83908 3977 ft 188 kts 316°
2026-05-04 19:55 51.42081 -0.84880 4041 ft 185 kts 350°
2026-05-04 19:55 51.43323 -0.84696 4007 ft 182 kts 26°
2026-05-04 19:55 51.44236 -0.83385 3858 ft 178 kts 51°
2026-05-04 19:55 51.44957 -0.81754 3545 ft 179 kts 55°
2026-05-04 19:56 51.45640 -0.80097 3295 ft 180 kts 56°
2026-05-04 19:56 51.46327 -0.78421 3059 ft 178 kts 56°
2026-05-04 19:56 51.47005 -0.76761 2999 ft 177 kts 58°
2026-05-04 19:56 51.47436 -0.74909 2998 ft 180 kts 76°
2026-05-04 19:57 51.47592 -0.72930 2982 ft 180 kts 83°
2026-05-04 19:57 51.47673 -0.70929 2795 ft 180 kts 85°
2026-05-04 19:57 51.47710 -0.68930 2555 ft 179 kts 86°
2026-05-04 19:57 51.47721 -0.66976 2310 ft 170 kts 86°
2026-05-04 19:58 51.47721 -0.65131 2082 ft 161 kts 86°
2026-05-04 19:58 51.47721 -0.63395 1890 ft 154 kts 86°
2026-05-04 19:58 51.47723 -0.61667 1698 ft 154 kts 86°
2026-05-04 19:58 51.47726 -0.59963 1489 ft 150 kts 86°
2026-05-04 19:59 51.47727 -0.58360 1289 ft 140 kts 86°
2026-05-04 19:59 51.47728 -0.56866 1093 ft 130 kts 86°
2026-05-04 19:59 51.47731 -0.55433 912 ft 128 kts 86°
2026-05-04 19:59 51.47734 -0.54012 757 ft 127 kts 87°
2026-05-04 20:00 51.47733 -0.52585 596 ft 127 kts 87°
2026-05-04 20:00 51.47742 -0.51178 439 ft 127 kts 87°
2026-05-04 20:00 51.47746 -0.49765 260 ft 126 kts 87°
2026-05-04 20:00 51.47750 -0.48374 103 ft 125 kts 88°
2026-05-04 20:01 51.47754 -0.47172 78 ft 73 kts 89°
2026-05-04 20:01 51.47758 -0.46438 78 ft 44 kts 90°
2026-05-04 20:01 51.47714 -0.46159 78 ft 23 kts 141°
2026-05-04 20:01 51.47604 -0.46092 78 ft 16 kts 227°
2026-05-04 20:02 51.47592 -0.46270 78 ft 16 kts 271°
2026-05-04 20:02 51.47592 -0.46461 78 ft 17 kts 269°
2026-05-04 20:02 51.47592 -0.46657 78 ft 18 kts 270°
2026-05-04 20:02 51.47586 -0.46865 78 ft 18 kts 262°
2026-05-04 20:03 51.47580 -0.47077 78 ft 19 kts 270°
2026-05-04 20:03 51.47581 -0.47295 78 ft 19 kts 269°
2026-05-04 20:03 51.47581 -0.47536 78 ft 22 kts 270°
2026-05-04 20:03 51.47579 -0.47787 78 ft 22 kts 269°
2026-05-04 20:04 51.47578 -0.48002 78 ft 15 kts 270°
2026-05-04 20:04 51.47578 -0.48115 78 ft 9 kts 268°
2026-05-04 20:04 51.47577 -0.48238 78 ft 11 kts 269°
2026-05-04 20:04 51.47549 -0.48354 78 ft 12 kts 196°
2026-05-04 20:05 51.47459 -0.48361 78 ft 13 kts 179°
2026-05-04 20:05 51.47361 -0.48360 78 ft 14 kts 179°
2026-05-04 20:05 51.47254 -0.48358 78 ft 15 kts 180°
2026-05-04 20:05 51.47195 -0.48358 78 ft 0 kts 179°
2026-05-04 20:06 51.47190 -0.48358 78 ft 4 kts 180°
2026-05-04 20:06 51.47124 -0.48358 78 ft 12 kts 179°
2026-05-04 20:07 51.47037 -0.48356 78 ft 12 kts 179°
2026-05-04 20:07 51.46957 -0.48356 78 ft 8 kts 179°
2026-05-04 20:07 51.46897 -0.48366 78 ft 9 kts 208°
2026-05-04 20:07 51.46875 -0.48458 78 ft 9 kts 269°
2026-05-04 20:08 51.46876 -0.48566 78 ft 9 kts 271°
2026-05-04 20:08 51.46876 -0.48679 78 ft 10 kts 269°
2026-05-04 20:08 51.46875 -0.48794 78 ft 10 kts 269°
2026-05-04 20:08 51.46886 -0.48853 78 ft 5 kts 326°
2026-05-04 20:09 51.46920 -0.48859 78 ft 4 kts
2026-05-04 20:09 51.46927 -0.48859 78 ft 0 kts